This is the latest recevied weather packets stored in our database for station/object EA7HQL-10. If no packets are shown the sender has not sent any weather packets the latest 10 day(s).
| Time | Temp. | Humidity | Pressure | Rain* | Wind** | Luminosity | Snow |
|---|---|---|---|---|---|---|---|
| 1777656521 | 20° C | 81% | 1017.3 hPa | 0 mm | - | - | - |
| 1777656246 | 20° C | 81% | 1017.4 hPa | 0 mm | - | - | - |
| 1777655981 | 20° C | 81% | 1017.1 hPa | 0 mm | - | - | - |
| 1777655686 | 20° C | 82% | 1017.3 hPa | 0 mm | - | - | - |
| 1777655436 | 20° C | 81% | 1017.5 hPa | 0 mm | - | - | - |
| 1777655141 | 20.56° C | 81% | 1017.2 hPa | 0 mm | - | - | - |
| 1777654845 | 20° C | 82% | 1017.4 hPa | 0 mm | - | - | - |
| 1777654576 | 20° C | 82% | 1017.4 hPa | 0 mm | - | - | - |
| 1777654276 | 20° C | 82% | 1017.5 hPa | 0 mm | - | - | - |
| 1777654001 | 19.44° C | 83% | 1017.3 hPa | 0 mm | - | - | - |
| 1777653751 | 20° C | 81% | 1017.6 hPa | 0 mm | - | - | - |
| 1777653476 | 20.56° C | 80% | 1017.6 hPa | 0 mm | - | - | - |
| 1777653176 | 20.56° C | 80% | 1017.6 hPa | 0 mm | - | - | - |
| 1777652906 | 20.56° C | 81% | 1017.4 hPa | 0 mm | - | - | - |
| 1777652631 | 20° C | 82% | 1017.7 hPa | 0 mm | - | - | - |
| 1777652346 | 20.56° C | 79% | 1017.8 hPa | 0 mm | - | - | - |
| 1777652091 | 20.56° C | 79% | 1017.7 hPa | 0 mm | - | - | - |
| 1777651816 | 20.56° C | 79% | 1017.7 hPa | 0 mm | - | - | - |
| 1777651551 | 20° C | 81% | 1017.7 hPa | 0 mm | - | - | - |
| 1777651296 | 20.56° C | 80% | 1017.7 hPa | 0 mm | - | - | - |
| 1777651031 | 20.56° C | 80% | 1017.7 hPa | 0 mm | - | - | - |
| 1777650761 | 20° C | 82% | 1017.5 hPa | 0 mm | - | - | - |
| 1777650520 | 20° C | 82% | 1017.6 hPa | 0 mm | - | - | - |
| 1777650246 | 20° C | 82% | 1017.7 hPa | 0 mm | - | - | - |
| 1777649976 | 20° C | 82% | 1017.7 hPa | 0 mm | - | - | - |
* Rain latest hour (hover to see other rain measurements)
** Current wind speed in m/s (hover to see current wind gust speed)